Dewpoint
25 23 26 27 29 27 25 22 21 20 20 20 21 19 20 23 24 24 25 26 26 26 29 32 35 36 59 64 64 65 66 65 65 66 66 65 65 67 67 67 67 66 66 66
19 20 23 26 25 24 24 22 20 20 20 20 20 19 18 23 24 24 25 25 26 27 29 30 33 37 60 63 64 65 65 66 66 65 66 65 66 66 66 65 64 62 60 56
17 16 21 22 23 22 20 19 19 19 21 22 21 19 20 20 22 25 25 26 27 28 29 30 32 42 59 62 64 64 65 66 66 65 66 67 65 65 63 63 61 58 54 53
24 20 16 17 20 20 19 20 19 17 17 16 20 17 19 20 19 20 22 24 25 26 28 31 31 38 56 62 65 65 65 66 66 66 65 65 64 63 62 62 56 54 53 53
25 24 21 16 14 18 18 20 19 19 18 17 17 18 17 21 20 19 19 21 24 24 26 28 30 37 52 61 65 65 66 66 66 66 66 65 64 62 58 56 52 52 52 52
29 29 27 23 22 20 16 16 15 16 17 16 17 16 16 17 20 19 19 20 23 24 26 27 27 33 53 58 64 65 66 66 66 66 65 64 62 58 55 53 51 51 51 50
31 30 28 29 27 26 24 21 17 16 14 15 18 17 17 21 21 21 20 20 21 24 25 28 30 35 52 57 62 64 66 66 66 66 65 63 61 56 53 52 50 50 49 49
29 27 29 29 28 25 26 26 25 23 26 20 19 17 18 21 22 22 21 21 21 23 27 30 33 34 53 58 62 65 65 66 65 64 63 62 61 56 53 51 50 50 48 48
30 28 30 30 27 27 25 24 25 25 26 26 24 24 26 26 23 22 21 22 22 22 28 31 35 37 52 59 61 64 65 65 65 64 63 62 61 55 52 52 52 51 49 46
32 30 30 30 31 32 26 25 24 26 24 25 30 28 26 25 26 28 26 24 23 29 32 32 34 43 55 59 61 65 66 65 65 65 63 62 60 55 51 51 50 49 49 46
32 34 30 33 31 31 31 26 26 27 32 29 29 27 30 28 29 30 29 31 32 31 33 35 34 44 57 59 64 65 64 64 61 61 61 57 54 52 51 50 48 48 46 44
35 35 33 32 33 33 32 31 31 29 31 32 30 27 29 30 31 31 34 32 30 31 33 36 44 59 60 62 62 62 61 61 58 56 54 54 52 51 49 46 44 45 43 44
32 35 29 25 26 34 34 35 35 34 33 34 31 30 31 31 32 32 32 31 37 34 37 42 57 59 60 60 60 59 57 56 53 53 51 51 50 49 46 44 43 44 44 43
38 32 28 26 26 31 32 33 31 32 33 34 35 36 36 34 32 33 34 34 34 38 38 46 54 58 58 58 57 55 52 52 50 48 49 48 48 46 46 45 44 44 44 41
28 25 24 26 30 31 28 26 28 26 30 32 32 35 36 34 31 31 32 32 31 34 37 42 48 56 57 56 55 53 50 49 48 47 46 45 44 44 45 45 44 44 41 40
34 27 29 27 27 27 27 29 31 30 29 28 30 32 39 40 37 32 32 32 32 36 40 40 47 53 55 55 53 52 49 47 46 44 44 43 44 44 44 44 44 42 41 41
31 30 28 24 25 27 26 29 25 24 22 26 28 30 31 33 33 33 33 31 30 30 37 40 45 49 54 54 51 50 47 45 44 43 42 42 43 43 42 42 40 39 39 40
29 30 31 25 26 20 22 23 21 22 22 23 24 27 32 30 29 33 35 34 34 34 33 37 42 47 52 53 50 47 44 42 42 40 40 41 41 41 40 39 39 39 40 40
32 30 28 24 21 25 27 21 22 21 19 21 19 25 28 32 33 30 28 34 35 35 36 38 41 46 51 52 48 44 43 41 40 39 39 40 40 39 39 40 40 39 39 40
31 31 28 23 21 17 21 22 21 21 18 19 22 27 29 37 35 34 34 33 30 30 31 33 40 44 49 50 47 43 41 39 39 39 40 40 39 38 39 40 40 40 41 42
24 25 26 26 23 23 25 23 23 20 22 35 37 41 41 42 43 45 43 43 41 37 30 31 34 43 46 50 47 42 40 39 38 40 39 39 38 39 39 40 41 41 41 40
22 20 22 23 23 20 27 26 25 26 33 34 37 39 40 44 45 44 44 42 41 39 40 39 37 37 45 48 48 43 40 39 39 39 37 38 39 39 39 41 41 40 40 39
22 25 25 27 24 27 30 28 31 33 30 31 33 33 38 45 43 45 44 41 39 38 40 41 40 39 46 47 46 43 38 38 37 37 37 38 38 40 40 40 40 39 39 37
26 26 25 25 24 25 29 30 31 31 30 30 34 43 46 44 44 44 45 41 39 40 38 38 37 37 38 41 41 37 36 36 36 36 38 39 39 39 39 39 39 38 37 36
25 28 26 25 25 25 25 29 29 28 30 33 34 38 39 44 46 43 43 40 35 40 40 38 37 35 35 35 35 35 36 36 37 38 38 38 38 38 38 38 38 37 37 37
31 28 26 25 26 29 29 33 36 34 31 30 32 35 35 45 44 44 44 42 38 39 39 40 38 37 37 37 37 38 38 38 37 37 37 38 38 37 37 36 34 34 34 35
Lifted_Index
5 4 4 4 4 4 4 3 3 4 4 3 3 2 2 2 2 2 3 3 4 4 4 3 3 1 -2 -4 -4 -4 -4 -4 -3 -3 -3 -3 -3 -3 -3 -3 -3 -3 -2 -2
3 3 3 4 5 5 4 4 4 4 4 3 3 3 2 2 3 3 3 3 3 4 4 3 3 1 -2 -4 -4 -4 -4 -4 -3 -3 -3 -3 -3 -3 -3 -3 -3 -2 -2 -2
3 3 3 3 4 4 4 4 4 4 4 3 3 3 3 3 3 3 3 3 3 3 4 3 3 1 -2 -4 -4 -4 -4 -4 -4 -4 -4 -3 -3 -3 -3 -3 -3 -2 -1 -1
3 3 3 2 3 3 3 4 4 4 4 3 3 2 3 3 3 3 3 3 3 4 4 3 3 2 -1 -4 -5 -5 -5 -5 -5 -4 -4 -4 -3 -3 -3 -3 -2 -1 -1 0
4 4 3 3 3 3 3 4 4 4 3 3 3 3 3 3 4 4 3 4 4 4 3 3 3 2 -1 -4 -5 -5 -5 -5 -5 -5 -4 -4 -3 -3 -3 -2 -2 -1 -0 0
4 4 4 4 4 4 3 3 3 3 2 3 3 3 3 4 5 4 4 4 4 3 3 3 3 2 -0 -3 -5 -5 -5 -5 -5 -5 -4 -4 -3 -3 -3 -2 -1 -1 -1 0
4 4 4 4 4 4 3 3 2 1 1 2 3 3 4 5 5 5 4 4 3 3 3 3 3 2 -0 -3 -5 -6 -6 -6 -6 -5 -5 -4 -3 -3 -2 -2 -1 -1 -1 -0
3 3 4 4 4 3 3 2 1 0 0 1 2 3 4 5 5 5 4 4 3 2 2 2 3 2 -0 -3 -4 -5 -6 -6 -6 -5 -5 -4 -3 -3 -2 -2 -1 -1 0 1
2 3 4 4 3 3 3 2 1 0 0 1 2 2 3 5 5 4 4 4 3 2 2 2 2 1 -0 -2 -4 -5 -6 -6 -6 -5 -5 -4 -3 -3 -2 -1 -1 0 2 3
1 2 3 3 3 3 3 2 1 0 -0 0 1 2 3 4 4 4 3 3 3 2 2 2 2 1 -1 -3 -4 -5 -6 -6 -6 -5 -4 -4 -3 -3 -2 -1 0 1 3 5
-0 1 3 3 3 3 2 2 1 0 -0 -0 0 2 3 4 4 3 2 2 2 2 2 2 1 -0 -2 -3 -4 -6 -6 -6 -6 -5 -4 -4 -3 -3 -2 -0 1 2 4 6
-1 0 2 3 3 2 1 1 0 -0 -0 -0 0 2 3 4 4 2 2 1 1 1 1 1 0 -1 -3 -3 -4 -5 -6 -6 -6 -5 -4 -4 -3 -3 -1 0 2 3 5 6
-1 -0 1 3 3 1 1 0 -0 -0 0 0 1 1 3 4 3 2 2 1 1 0 0 0 -1 -2 -3 -4 -4 -5 -5 -5 -5 -4 -4 -3 -3 -2 -0 1 3 4 6 7
-1 -0 1 2 2 2 1 1 1 1 0 0 1 1 2 3 3 3 2 1 1 0 -0 -1 -2 -3 -3 -4 -4 -4 -5 -5 -4 -4 -3 -3 -2 -1 1 2 4 5 7 8
-0 0 1 1 2 2 2 2 2 2 1 1 1 1 2 2 3 3 2 1 1 0 -0 -1 -2 -3 -3 -3 -3 -4 -4 -4 -4 -3 -2 -2 -1 -0 2 4 5 6 8 9
1 1 1 1 2 2 3 3 3 3 2 1 1 1 2 2 2 2 2 1 1 0 -0 -1 -2 -3 -3 -2 -2 -3 -3 -3 -3 -2 -1 -1 -0 1 3 5 6 8 10 11
1 1 1 1 2 2 3 3 3 3 2 2 1 2 2 3 3 2 2 1 1 0 -0 -1 -2 -2 -2 -2 -2 -2 -2 -2 -2 -1 -0 0 0 1 4 6 8 10 12 13
1 1 1 1 1 1 2 3 3 3 2 2 2 2 2 3 3 2 2 1 0 0 -0 -1 -1 -2 -2 -2 -1 -1 -1 -1 -1 -0 1 1 1 2 4 7 10 12 14 15
0 0 0 1 1 1 2 3 3 2 3 3 2 2 2 2 2 3 2 1 1 0 0 -0 -0 -1 -2 -2 -1 -1 -0 -0 -0 1 2 2 3 3 5 8 11 13 15 15
0 -0 0 0 1 1 2 2 2 2 2 3 2 1 1 1 2 3 2 2 1 1 1 1 0 -1 -1 -1 -1 0 0 1 1 2 3 4 5 6 8 10 12 14 15 15
0 -0 -0 0 0 1 1 2 1 1 2 1 1 0 0 0 1 2 2 2 2 2 1 1 0 -0 -0 -0 0 0 1 2 2 3 4 5 7 8 9 11 13 15 15 14
1 0 0 0 0 1 1 1 1 1 1 1 1 0 0 0 1 2 2 2 2 1 1 0 0 0 0 1 1 1 1 2 3 4 5 7 8 10 11 12 14 15 14 13
1 1 0 0 1 1 0 0 0 0 1 2 2 1 0 0 1 2 2 2 2 1 1 0 -0 -0 0 1 1 1 2 3 4 5 6 8 10 11 11 13 14 14 13 13
1 1 1 1 1 1 0 0 0 0 1 2 2 1 0 0 1 2 3 3 2 1 0 0 -0 0 1 1 1 2 2 3 4 6 8 10 11 11 12 13 14 13 13 13
1 1 1 1 1 1 1 1 0 0 1 2 2 2 1 1 1 2 2 3 3 2 1 0 0 0 1 1 2 2 3 4 5 6 9 10 11 12 12 13 14 14 14 14
1 1 1 1 1 1 1 0 0 0 1 2 2 2 2 2 1 1 2 3 3 3 2 1 0 0 1 1 2 3 4 5 6 7 9 11 12 12 13 13 14 14 15 16